GW3247 Weather Reports


Display with metric or nautical units.
time (UTC)temp
F
wind
direction
speed
MPH
gust
MPH
rain 1hr
in
rain 24hr
in
rain mn
in
humidity
%
barometer
mb
20260504023038 52 152 0.0 0.0 0.02 0.33 0.17 93 1006.1
20260504021536 52 152 0.0 0.0 0.02 0.32 0.16 93 1006.2
20260504020040 52 153 0.0 0.0 0.02 0.32 0.16 93 1006.2
20260504014536 52 143 0.0 0.0 0.02 0.32 0.16 93 1006.2
20260504013036 52 86 0.0 2.0 0.02 0.31 0.15 93 1006.3
20260504011533 52 65 2.0 4.0 0.02 0.31 0.14 93 1006.4
20260504010031 52 63 3.0 5.0 0.01 0.30 0.13 93 1006.3
20260504004530 52 66 4.0 5.0 0.01 0.30 0.13 93 1006.4
20260504003027 52 49 3.0 6.0 0.01 0.30 0.13 92 1006.4
20260504001525 52 49 2.0 7.0 0.02 0.28 0.13 92 1006.5
20260504000024 53 53 3.0 7.0 0.04 0.28 0.13 92 1006.6
20260503234526 53 27 5.0 6.0 0.06 0.28 0.13 92 1006.9
20260503233019 53 336 1.0 3.0 0.06 0.28 0.12 92 1007.1
20260503231519 53 221 0.0 2.0 0.08 0.28 0.11 92 1007.1
20260503230016 53 207 0.0 5.0 0.09 0.25 0.09 92 1007.2
20260503224514 53 198 2.0 5.0 0.11 0.24 0.07 91 1007.5
20260503223021 52 163 2.0 4.0 0.13 0.22 0.06 91 1007.7
20260503221510 52 305 1.0 3.0 0.11 0.20 0.03 91 1007.8
20260503220011 52 297 0.0 2.0 0.08 0.17 0.17 91 1008.1
20260503214506 52 179 1.0 5.0 0.05 0.13 0.13 91 1008.0
20260503213006 52 234 1.0 3.0 0.06 0.09 0.09 91 1008.1
20260503211504 52 130 3.0 4.0 0.09 0.09 0.09 90 1007.6
20260503210002 52 92 1.0 3.0 0.09 0.09 0.09 90 1007.8
20260503204621 52 116 2.0 4.0 0.08 0.08 0.08 90 1007.9
20260503203114 52 259 0.0 2.0 0.04 0.04 0.04 90 1009.0
20260503201556 52 216 2.0 3.0 0.00 0.00 0.00 90 1009.0
20260503200055 52 153 0.0 2.0 0.00 0.00 0.00 90 1008.6
20260503194554 52 156 0.0 1.0 0.00 0.00 0.00 90 1008.6
20260503193053 53 91 0.0 1.0 0.00 0.00 0.00 90 1008.8
20260503191602 53 91 0.0 3.0 0.00 0.00 0.00 90 1008.7
20260503190050 53 105 1.0 3.0 0.00 0.00 0.00 90 1008.7
20260503184605 53 127 2.0 3.0 0.00 0.00 0.00 90 1008.8
20260503183048 53 130 2.0 3.0 0.00 0.00 0.00 90 1009.0
20260503181547 53 102 1.0 3.0 0.00 0.00 0.00 90 1009.1
20260503180047 52 110 0.0 4.0 0.00 0.00 0.00 90 1009.2
20260503174601 52 113 2.0 4.0 0.00 0.00 0.00 90 1008.9
20260503173043 52 133 1.0 2.0 0.00 0.00 0.00 90 1009.4
20260503171541 52 91 2.0 4.0 0.00 0.00 0.00 90 1009.4
20260503081502 54 4 5.0 9.0 0.00 0.00 0.00 85 1012.1
20260503071612 54 323 4.0 5.0 0.00 0.00 0.00 84 1011.6
20260503070113 54 304 0.0 7.0 0.00 0.00 0.00 84 1011.6
20260503060111 53 319 6.0 10.0 0.00 0.00 0.00 86 1011.4
20260503054559 53 281 4.0 8.0 0.00 0.00 0.00 86 1011.5
20260503053053 52 239 0.0 7.0 0.00 0.00 0.00 87 1011.5
20260503051554 52 285 4.0 11.0 0.00 0.00 0.00 87 1011.4
20260503050057 53 304 5.0 11.0 0.00 0.00 0.00 86 1011.8
20260503044547 53 302 9.0 14.0 0.00 0.00 0.00 85 1011.4
20260503043047 53 264 4.0 11.0 0.00 0.00 0.00 84 1011.3
20260503041543 54 326 5.0 14.0 0.00 0.00 0.00 83 1011.4
20260503040041 54 298 2.0 9.0 0.00 0.00 0.00 80 1011.2
20260503034544 54 267 2.0 5.0 0.00 0.00 0.00 79 1011.2
20260503033051 54 259 2.0 5.0 0.00 0.00 0.00 78 1011.1
20260503031538 54 284 3.0 6.0 0.00 0.00 0.00 77 1011.1
20260503030037 54 269 3.0 8.0 0.00 0.00 0.00 76 1011.2
20260503024543 55 271 3.0 7.0 0.00 0.00 0.00 75 1011.2